Change the Weather History Date:

Thursday, August 1, 2013

  Actual Average Record
Temperature  
Mean Temperature 61 °F -  
Max Temperature 69 °F 71 °F 82 °F (2014)
Min Temperature 53 °F 50 °F 41 °F (2003)
Degree Days  
Heating Degree Days 4    
Growing Degree Days 11 (Base 50)    
Moisture  
Dew Point 53 °F    
Average Humidity 73    
Maximum Humidity 88    
Minimum Humidity 49    
Precipitation  
Precipitation 0.00 in 0.06 in - ()
Sea Level Pressure  
Sea Level Pressure 30.06 in    
Wind  
Wind Speed 8 mph ()    
Max Wind Speed 16 mph    
Max Gust Speed -    
Visibility 6.6 miles    
Events      
Averages and records for this station are not official NWS values.
T = Trace of Precipitation, MM = Missing Value Source: Averaged Metar Reports

Daily Weather History Graph

Daily Weather History Graph

Search for Another Location

Airport or City:

Trip Planner

Search our weather history database for the weather conditions in past years. The results will help you decide how hot, cold, wet, or windy it might be!

Date:

Astronomy

Aug. 01, 2013 Rise Set
Actual Time 6:28 AM AEST 5:19 PM AEST
Civil Twilight 6:04 AM AEST 5:43 PM AEST
Nautical Twilight 5:36 AM AEST 6:11 PM AEST
Astronomical Twilight 5:08 AM AEST 6:39 PM AEST
Moon 1:43 AM AEST (8/1) 12:41 PM AEST (8/1)
Length of Visible Light 11h 39m
Length of Day
10h 50m
Waning Crescent, 28% of the Moon is Illuminated
Aug 1
Waning Crescent
Aug 7
New
Aug 14
First Quarter
Aug 21
Full
Aug 28
Last Quarter

Hourly Weather History & Observations

Time (AEST) Temp. Dew Point Humidity Pressure Visibility Wind Dir Wind Speed Gust Speed Precip Events Conditions
12:00 AM 55 °F 51 °F 82% 30.06 in 25 mi SSW 6.9 mph - -   Partly Cloudy
12:00 AM 55.4 °F 51.8 °F 88% 30.04 in - SSW 6.9 mph - N/A   Clear
12:30 AM 55.4 °F 51.8 °F 88% 30.04 in - SSW 6.9 mph - N/A   Clear
1:00 AM 56 °F 51 °F 78% 30.05 in - SSW 6.9 mph - -  
1:00 AM 55.4 °F 51.8 °F 88% 30.04 in - SSW 6.9 mph - N/A   Clear
1:30 AM 57.2 °F 51.8 °F 82% 30.04 in - SSW 8.1 mph - N/A   Clear
2:00 AM 53.6 °F 50.0 °F 88% 30.04 in - SSW 6.9 mph - N/A   Clear
2:30 AM 53.6 °F 50.0 °F 88% 30.04 in - SSW 8.1 mph - N/A   Clear
3:00 AM 54 °F 51 °F 85% 30.03 in 25 mi SSW 8.1 mph - -   Partly Cloudy
3:00 AM 55.4 °F 50.0 °F 82% 30.01 in 6.2 mi SSW 8.1 mph - N/A   Partly Cloudy
3:30 AM 55.4 °F 50.0 °F 82% 30.01 in 6.2 mi SSW 6.9 mph - N/A   Mostly Cloudy
4:00 AM 57 °F 51 °F 73% 30.03 in - SSW 8.1 mph - -  
4:00 AM 57.2 °F 50.0 °F 77% 30.01 in 6.2 mi SSW 8.1 mph - N/A   Scattered Clouds
4:30 AM 55.4 °F 50.0 °F 82% 30.01 in 6.2 mi SSW 8.1 mph - N/A   Scattered Clouds
5:00 AM 57.2 °F 50.0 °F 77% 30.01 in 6.2 mi SSW 8.1 mph - N/A   Scattered Clouds
5:30 AM 57.2 °F 50.0 °F 77% 30.04 in 6.2 mi SSW 9.2 mph - N/A   Scattered Clouds
6:00 AM 57 °F 51 °F 74% 30.06 in 25 mi SSW 10.4 mph - -   Mostly Cloudy
6:00 AM 57.2 °F 51.8 °F 82% 30.04 in 6.2 mi SSW 10.4 mph - N/A   Mostly Cloudy
6:30 AM 55.4 °F 51.8 °F 88% 30.04 in 6.2 mi SSW 11.5 mph - N/A   Partly Cloudy
7:00 AM 56 °F 51 °F 78% 30.07 in - SSW 10.4 mph - -  
7:00 AM 55.4 °F 51.8 °F 88% 30.06 in 6.2 mi SSW 10.4 mph - N/A   Partly Cloudy
7:30 AM 59.0 °F 51.8 °F 77% 30.06 in 6.2 mi SSW 10.4 mph - N/A   Partly Cloudy
8:00 AM 60.8 °F 51.8 °F 72% 30.09 in 6.2 mi SSW 11.5 mph - N/A   Partly Cloudy
8:30 AM 62.6 °F 51.8 °F 68% 30.09 in 6.2 mi SSW 12.7 mph - N/A   Partly Cloudy
9:00 AM 63 °F 51 °F 57% 30.11 in 25 mi SSW 16.1 mph - -   Partly Cloudy
9:00 AM 62.6 °F 51.8 °F 68% 30.09 in 6.2 mi SSW 16.1 mph - N/A   Mostly Cloudy
9:30 AM 64.4 °F 51.8 °F 64% 30.09 in 6.2 mi SSW 15.0 mph - N/A   Scattered Clouds
10:00 AM 66 °F 52 °F 52% 30.10 in - SSW 12.7 mph - -  
10:00 AM 66.2 °F 51.8 °F 60% 30.09 in 6.2 mi SSW 12.7 mph - N/A   Partly Cloudy
10:30 AM 68.0 °F 51.8 °F 56% 30.09 in 6.2 mi South 11.5 mph - N/A   Scattered Clouds
11:00 AM 68.0 °F 53.6 °F 60% 30.06 in 6.2 mi South 11.5 mph - N/A   Mostly Cloudy
11:30 AM 68.0 °F 53.6 °F 60% 30.06 in 6.2 mi SSE 9.2 mph - N/A   Mostly Cloudy
12:00 PM 68.0 °F 53.6 °F 60% 30.06 in 6.2 mi SSE 11.5 mph - N/A   Mostly Cloudy
12:30 PM 69.8 °F 53.6 °F 56% 30.04 in 6.2 mi South 12.7 mph - N/A   Mostly Cloudy
1:00 PM 69.8 °F 53.6 °F 56% 30.04 in 6.2 mi South 9.2 mph - N/A   Mostly Cloudy
1:30 PM 69.8 °F 55.4 °F 60% 30.04 in 6.2 mi South 8.1 mph - N/A   Scattered Clouds
2:00 PM 69.8 °F 55.4 °F 60% 30.01 in 6.2 mi South 8.1 mph - N/A   Mostly Cloudy
2:30 PM 68.0 °F 53.6 °F 60% 30.01 in 6.2 mi SE 4.6 mph - N/A   Mostly Cloudy
3:00 PM 69 °F 54 °F 49% 30.03 in 25 mi East 5.8 mph - -   Partly Cloudy
3:00 PM 69.8 °F 53.6 °F 56% 30.01 in 6.2 mi East 5.8 mph - N/A   Mostly Cloudy
3:30 PM 68.0 °F 55.4 °F 64% 30.04 in 6.2 mi ENE 6.9 mph - N/A   Scattered Clouds
4:00 PM 68.0 °F 55.4 °F 64% 30.04 in 6.2 mi ENE 5.8 mph - N/A   Mostly Cloudy
4:30 PM 66.2 °F 57.2 °F 73% 30.04 in 6.2 mi East 8.1 mph - N/A   Scattered Clouds
5:00 PM 66.2 °F 57.2 °F 73% 30.04 in 6.2 mi East 5.8 mph - N/A   Scattered Clouds
5:30 PM 64.4 °F 57.2 °F 77% 30.04 in 6.2 mi East 5.8 mph - N/A   Scattered Clouds
6:00 PM 65 °F 55 °F 62% 30.07 in 22 mi ESE 4.6 mph - -   Partly Cloudy
6:00 PM 64.4 °F 55.4 °F 73% 30.06 in 6.2 mi ESE 4.6 mph - N/A   Scattered Clouds
6:30 PM 64.4 °F 57.2 °F 77% 30.06 in - ESE 4.6 mph - N/A   Clear
7:00 PM 64 °F 59 °F 79% 30.09 in - ESE 3.5 mph - -  
7:00 PM 64.4 °F 59.0 °F 83% 30.06 in - ESE 3.5 mph - N/A   Clear
7:30 PM 64.4 °F 59.0 °F 83% 30.09 in - SE 4.6 mph - N/A   Clear
8:00 PM 60.8 °F 55.4 °F 82% 30.09 in - SSW 4.6 mph - N/A   Clear
8:30 PM 60.8 °F 55.4 °F 82% 30.09 in - SSW 5.8 mph - N/A   Clear
9:00 PM 62 °F 54 °F 68% 30.12 in 19 mi South 5.8 mph - -   Partly Cloudy
9:00 PM 60.8 °F 53.6 °F 77% 30.09 in - South 5.8 mph - N/A   Clear
9:30 PM 60.8 °F 53.6 °F 77% 30.09 in - South 5.8 mph - N/A   Clear
10:00 PM 61 °F 54 °F 71% 30.12 in - South 5.8 mph - -  
10:00 PM 60.8 °F 53.6 °F 77% 30.09 in - South 5.8 mph - N/A   Clear
10:30 PM 59.0 °F 53.6 °F 82% 30.09 in - SSE 5.8 mph - N/A   Clear
11:00 PM 59.0 °F 53.6 °F 82% 30.09 in - South 4.6 mph - N/A   Clear
11:30 PM 59.0 °F 53.6 °F 82% 30.09 in - SSW 5.8 mph - N/A   Clear